Milan, NH

11:11 PM EDT on August 24, 2016 (GMT -0400)
Berlin Municipal

Weather History for KBML - March, 2013

Change the Weather History Date:

Wednesday, March 6, 2013

  Actual Average Record
Temperature  
Mean Temperature 32 °F -  
Max Temperature 35 °F 30 °F 48 °F (2004)
Min Temperature 28 °F 7 °F -22 °F (2015)
Degree Days  
Heating Degree Days 34    
Moisture  
Dew Point 25 °F    
Average Humidity 73    
Maximum Humidity 82    
Minimum Humidity 60    
Precipitation  
Precipitation 0.02 in - - ()
Sea Level Pressure  
Sea Level Pressure 30.19 in    
Wind  
Wind Speed 5 mph (East)    
Max Wind Speed 10 mph    
Max Gust Speed 26 mph    
Visibility 7 miles    
Events Snow    
Averages and records for this station are not official NWS values.
T = Trace of Precipitation, MM = Missing Value Source: NWS Daily Summary

Daily Weather History Graph

Daily Weather History Graph

Search for Another Location

Airport or City:

Trip Planner

Search our weather history database for the weather conditions in past years. The results will help you decide how hot, cold, wet, or windy it might be!

Date:

Astronomy

Mar. 06, 2013 Rise Set
Actual Time 6:13 AM EST 5:39 PM EST
Civil Twilight 5:43 AM EST 6:08 PM EST
Nautical Twilight 5:10 AM EST 6:42 PM EST
Astronomical Twilight 4:36 AM EST 7:16 PM EST
Moon 2:29 AM EST (3/6) 12:08 PM EST (3/6)
Length of Visible Light 12h 24m
Length of Day
11h 26m
Waning Crescent, 30% of the Moon is Illuminated
Mar 6
Waning Crescent
Mar 11
New
Mar 19
First Quarter
Mar 27
Full
Apr 3
Last Quarter

Hourly Weather History & Observations

Time (EST) Temp. Windchill Dew Point Humidity Pressure Visibility Wind Dir Wind Speed Gust Speed Precip Events Conditions
12:07 AM 35.6 °F 30.7 °F 28.4 °F 75% 30.08 in 9.0 mi East 5.8 mph - 0.00 in   Overcast
12:52 AM 34.0 °F 29.8 °F 28.9 °F 82% 30.12 in 10.0 mi East 4.6 mph - 0.00 in   Overcast
1:23 AM 33.8 °F 28.6 °F 28.4 °F 81% 30.09 in 10.0 mi ENE 5.8 mph - N/A   Overcast
1:52 AM 34.0 °F - 28.9 °F 82% 30.13 in 6.0 mi Calm Calm - 0.00 in Snow Light Snow
2:52 AM 34.0 °F - 28.0 °F 79% 30.14 in 9.0 mi Calm Calm - 0.00 in   Overcast
3:52 AM 33.1 °F - 28.0 °F 82% 30.15 in 10.0 mi Calm Calm - 0.00 in   Overcast
4:52 AM 34.0 °F 26.6 °F 27.0 °F 75% 30.16 in 10.0 mi East 9.2 mph - N/A   Overcast
5:52 AM 33.1 °F - 27.0 °F 78% 30.17 in 10.0 mi Calm Calm - N/A   Overcast
6:52 AM 33.1 °F 26.1 °F 26.1 °F 75% 30.19 in 10.0 mi NE 8.1 mph - N/A   Overcast
7:15 AM 33.8 °F 27.0 °F 24.8 °F 70% 30.15 in 10.0 mi East 8.1 mph 17.3 mph N/A   Overcast
7:32 AM 33.8 °F 28.6 °F 24.8 °F 70% 30.16 in 10.0 mi East 5.8 mph - N/A   Overcast
7:52 AM 34.0 °F 28.0 °F 26.1 °F 73% 30.21 in 10.0 mi ESE 6.9 mph - N/A   Overcast
8:52 AM 34.0 °F 26.6 °F 21.9 °F 61% 30.22 in 10.0 mi East 9.2 mph 26.5 mph 0.00 in   Overcast
9:12 AM 33.8 °F 26.4 °F 21.2 °F 60% 30.18 in 10.0 mi ENE 9.2 mph 17.3 mph N/A   Overcast
9:52 AM 34.0 °F 28.0 °F 23.0 °F 64% 30.23 in 10.0 mi Variable 6.9 mph 16.1 mph N/A   Overcast
10:20 AM 33.8 °F 26.4 °F 23.0 °F 65% 30.19 in 10.0 mi East 9.2 mph - N/A   Overcast
10:52 AM 34.0 °F 26.6 °F 21.9 °F 61% 30.24 in 10.0 mi ESE 9.2 mph 18.4 mph N/A   Overcast
11:14 AM 33.8 °F 26.4 °F 21.2 °F 60% 30.20 in 10.0 mi East 9.2 mph - N/A   Overcast
11:50 AM 35.6 °F 29.9 °F 23.0 °F 60% 30.19 in 8.0 mi Variable 6.9 mph - 0.00 in Snow Light Snow
11:52 AM 35.1 °F 28.6 °F 23.0 °F 61% 30.23 in 7.0 mi ESE 8.1 mph - 0.00 in Snow Light Snow
12:52 PM 35.1 °F 30.1 °F 23.0 °F 61% 30.21 in 10.0 mi Variable 5.8 mph - 0.00 in   Overcast
1:22 PM 33.8 °F 25.8 °F 24.8 °F 70% 30.17 in 1.8 mi East 10.4 mph 18.4 mph 0.00 in Snow Light Snow
1:31 PM 35.6 °F 30.7 °F 26.6 °F 70% 30.16 in 3.0 mi Variable 5.8 mph - 0.00 in Snow Light Snow
1:52 PM 34.0 °F 29.8 °F 26.1 °F 73% 30.19 in 9.0 mi East 4.6 mph - 0.00 in Snow Light Snow
2:52 PM 34.0 °F 27.2 °F 25.0 °F 70% 30.20 in 2.5 mi East 8.1 mph 19.6 mph 0.00 in Snow Light Snow
3:03 PM 35.6 °F 30.7 °F 24.8 °F 65% 30.16 in 9.0 mi ENE 5.8 mph - 0.00 in   Overcast
3:52 PM 34.0 °F 26.6 °F 23.0 °F 64% 30.21 in 8.0 mi East 9.2 mph 18.4 mph 0.00 in Snow Light Snow
4:52 PM 34.0 °F 28.0 °F 23.0 °F 64% 30.22 in 9.0 mi ENE 6.9 mph - 0.01 in   Overcast
5:25 PM 32.0 °F 26.4 °F 24.8 °F 75% 30.19 in 2.0 mi ENE 5.8 mph - 0.00 in Snow Light Snow
5:35 PM 32.0 °F 26.4 °F 24.8 °F 75% 30.19 in 6.0 mi East 5.8 mph - 0.00 in Snow Light Snow
5:52 PM 32.0 °F 25.6 °F 23.0 °F 69% 30.23 in 10.0 mi East 6.9 mph - 0.00 in   Overcast
6:20 PM 30.2 °F 25.4 °F 24.8 °F 80% 30.20 in 2.5 mi SE 4.6 mph - 0.00 in Snow Light Snow
6:28 PM 30.2 °F - 24.8 °F 80% 30.20 in 6.0 mi Calm Calm - 0.00 in Snow Light Snow
6:52 PM 32.0 °F 28.7 °F 23.0 °F 69% 30.25 in 10.0 mi Variable 3.5 mph - 0.00 in   Overcast
7:30 PM 30.2 °F 25.4 °F 24.8 °F 80% 30.20 in 2.5 mi East 4.6 mph - 0.00 in Snow Light Snow
7:37 PM 30.2 °F 24.3 °F 24.8 °F 80% 30.21 in 5.0 mi East 5.8 mph - 0.00 in Snow Light Snow
7:52 PM 30.0 °F 24.1 °F 25.0 °F 82% 30.25 in 5.0 mi SSE 5.8 mph - 0.00 in Snow Light Snow
8:11 PM 30.2 °F - 24.8 °F 80% 30.21 in 2.0 mi Calm Calm - 0.00 in Snow Light Snow
8:15 PM 30.2 °F - 24.8 °F 80% 30.21 in 1.8 mi Calm Calm - 0.00 in Snow Light Snow
8:27 PM 30.2 °F - 24.8 °F 80% 30.21 in 1.2 mi Calm Calm - 0.01 in Snow Light Snow
8:33 PM 30.2 °F 24.3 °F 24.8 °F 80% 30.21 in 2.0 mi ESE 5.8 mph - 0.01 in Snow Light Snow
8:41 PM 30.2 °F - 24.8 °F 80% 30.20 in 8.0 mi Calm Calm - 0.01 in Snow Light Snow
8:52 PM 30.0 °F 22.4 °F 23.0 °F 75% 30.25 in 6.0 mi ESE 8.1 mph - 0.01 in Snow Light Snow
9:00 PM 28.4 °F 21.2 °F 23.0 °F 80% 30.20 in 1.8 mi East 6.9 mph - 0.00 in Snow Light Snow
9:25 PM 28.4 °F - 23.0 °F 80% 30.19 in 9.0 mi Calm Calm - 0.00 in   Overcast
9:52 PM 30.0 °F 26.5 °F 21.0 °F 69% 30.23 in 9.0 mi Variable 3.5 mph - 0.00 in Snow Light Snow
10:52 PM 28.9 °F 22.8 °F 21.0 °F 72% 30.23 in 9.0 mi East 5.8 mph - 0.00 in   Overcast
11:52 PM 28.9 °F 25.2 °F 21.0 °F 72% 30.22 in 10.0 mi NNE 3.5 mph - 0.00 in   Overcast